Torna al catalogo

BREEZE-M DEB

AttivoHEO
NORAD 37198·DEBRIS·🇷🇺 Russia

Lanciato Mar 14, 2008 da Baikonur Cosmodrome

Loading…

Prossimi Passaggi (prossime 24 ore)

TLE

AggiornatoSource: Space-Track

Epoca: Sep 13, 2026, 01:27 UTC

1 37198U 08011C   26256.06078743  .00001425  00000-0  16606-2 0  9997
2 37198  49.0488 140.2671 6580266  59.7915 349.2337  3.12838361181032

Traccia BREEZE-M DEB in tempo reale con AllMySat

Download on the App Store